[[{"header":{"parameterUnit":"m.s-1","parameterCategory":1,"la1":30.2991,"la2":30.254,"lo1":-89.0895,"lo2":-89.0444,"dy":0.0017,"dx":0.0017,"nx":28,"ny":28,"refTime":"2024-08-05T03:00:00:Z","depth":0,"parameterNumber":2,"parameterNumberName":"U-component_of_WINDS"},"data":[0,0,0,0,0,0,0,0,0,0,0,0,0,0,0,0,0,0,0,0,0,0,0,0,0,0,0,0,0,0,0,0,0,0,0,0,0,0,0,0,0,0,0,0,0,0,0,0,0,0,0,0,0,0,0,0,0,0,0.8658,0.8659,0,0.8709,0.871,0.8711,0.8685,0.8684,0.8683,0.8681,0.8733,0.8735,0.8738,0,0,0,0,0,0,0,0,0,0,0,0,0,0.8539,0.8542,0.8658,0.8659,0.8659,0.8709,0.871,0.8711,0.8685,0.8684,0.8682,0.8681,0.8732,0.8735,0.8738,0,0,0,0,0,0,0,0,0,0,0,0,0,0.8591,0.8542,0.8658,0.8653,0.8653,0.8709,0.871,0.8711,0.8686,0.8684,0.8682,0.868,0.8731,0.8735,0.8739,0.8803,0,0,0.8751,0.8752,0,0,0,0,0,0,0,0,0.8588,0.8595,0.8653,0.8653,0.8653,0.8689,0.8687,0.8742,0.8686,0.8673,0.8681,0.8679,0.872,0.8725,0.8739,0.8805,0.8807,0.8751,0.8753,0.8755,0.8756,0,0,0,0,0,0,0,0.8584,0.8593,0.8678,0.8654,0.8654,0.8648,0.8653,0.8697,0.8707,0.8674,0.8672,0.8679,0.872,0.8735,0.874,0.8808,0.8751,0.8754,0.8757,0.8758,0.8934,0.8936,0,0,0,0,0,0,0.8581,0.859,0.8677,0.868,0.8615,0.8652,0.8658,0.8679,0.8706,0.8709,0.8681,0.8678,0.8729,0.8735,0.8741,0.882,0.8755,0.8759,0.8761,0.8931,0.8934,0.8937,0,0,0,0,0,0,0.8579,0.8589,0.8675,0.8635,0.8645,0.8656,0.8681,0.8682,0.8697,0.8711,0.8713,0.8694,0.8728,0.8736,0.8789,0.8821,0.876,0.8764,0.8929,0.8932,0.8935,0.8977,0,0,0,0,0,0,0.8575,0.8588,0.8612,0.8635,0.8647,0.8721,0.8683,0.8684,0.8704,0.87,0.8725,0.8727,0.8727,0.8783,0.8792,0.8826,0.8767,0.8926,0.893,0.8934,0.8972,0.8981,0.8989,0,0,0,0,0,0.8571,0.8621,0.8613,0.8624,0.8677,0.8722,0.8729,0.8729,0.8706,0.8731,0.8741,0.8726,0.8816,0.8788,0.8799,0.8834,0.8924,0.8929,0.8934,0.8969,0.8979,0.8988,0,0,0,0,0,0,0.86,0.8623,0.8616,0.8674,0.8697,0.8718,0.8749,0.8739,0.8768,0.8764,0.8761,0.8767,0.8823,0.8833,0.8802,0.8899,0.8867,0.8874,0.889,0.89,0.8908,0.8904,0.877,0,0,0,0,0,0.8613,0.8648,0.8667,0.8717,0.8729,0.8737,0.8757,0.8755,0.8777,0.8787,0.88,0.8823,0.8857,0.8879,0.8911,0.8975,0.898,0.9004,0.9012,0.9019,0.9025,0.9062,0.9073,0.8954,0.8954,0.8953,0,0,0.864,0.8658,0.8679,0.8723,0.874,0.8777,0.8745,0.8784,0.8812,0.8792,0.8843,0.8855,0.888,0.894,0.8966,0.8951,0.906,0.9025,0.903,0.9033,0.9069,0.908,0.909,0.8957,0.8956,0.8956,0,0,0.8709,0.8725,0.877,0.8789,0.8816,0.8822,0.8833,0.8856,0.8864,0.8915,0.8902,0.8935,0.8993,0.9013,0.903,0.9111,0.9099,0.9121,0.9163,0.9199,0.9209,0.9217,0.9247,0.9258,0.9128,0.9128,0.9128,0,0.8739,0.8794,0.8794,0.8835,0.8856,0.8842,0.8888,0.8906,0.8941,0.8956,0.8938,0.9013,0.9029,0.9094,0.9114,0.9128,0.9141,0.9118,0.9207,0.9216,0.9224,0.9252,0.9263,0.913,0.913,0.913,0.913,0,0.8831,0.8869,0.8902,0.8939,0.8963,0.9006,0.9014,0.9038,0.9035,0.9044,0.9098,0.9118,0.9154,0.917,0.9166,0.9235,0.9225,0.9207,0.9174,0.9238,0.9265,0.9275,0.9134,0.9133,0.9132,0.9132,0,0,0.8916,0.8955,0.8967,0.8985,0.9016,0.9045,0.9089,0.9126,0.9148,0.9175,0.9212,0.9263,0.9249,0.9269,0.9268,0.9299,0.9365,0.9278,0.9279,0.9295,0.9444,0.9457,0.9469,0.9357,0.9359,0.9361,0.9442,0,0.8988,0.9065,0.9068,0.9138,0.9175,0.9164,0.9203,0.9227,0.9237,0.9269,0.928,0.9317,0.9294,0.9307,0.9338,0.935,0.9394,0.9344,0.9393,0.9394,0.9387,0.9483,0.9496,0.9571,0.9452,0.9454,0.9455,0,0.908,0.9112,0.9186,0.9215,0.923,0.9265,0.9301,0.9332,0.936,0.9365,0.939,0.9385,0.9431,0.9398,0.9463,0.9429,0.9449,0.9459,0.9462,0.9466,0.9428,0.949,0.9595,0.9607,0.9472,0.9471,0.9469,0,0.9137,0.9197,0.925,0.9266,0.93,0.9325,0.934,0.9366,0.9389,0.9421,0.9436,0.9473,0.9492,0.9521,0.9527,0.9502,0.9593,0.956,0.9599,0.9599,0.9618,0.9616,0.9728,0.9631,0.9631,0.9631,0.9631,0,0.9216,0.9262,0.9276,0.9309,0.9361,0.9366,0.9417,0.9431,0.9455,0.9491,0.9484,0.9518,0.9524,0.956,0.9565,0.9619,0.9628,0.9634,0.9635,0.9635,0.9634,0.9647,0.9642,0.9634,0.9633,0.9633,0.9632,0,0.9286,0.9298,0.9355,0.9384,0.9393,0.943,0.9455,0.9487,0.9498,0.9544,0.9555,0.9571,0.9613,0.9623,0.9672,0.9676,0.9741,0.9736,0.9731,0.9731,0.977,0.9767,0.9894,0.9912,0.9803,0.9804,0.9805,0,0.9336,0.9372,0.9406,0.943,0.9447,0.9485,0.951,0.9516,0.9542,0.9579,0.9607,0.9648,0.9682,0.975,0.9767,0.9806,0.9802,0.9844,0.9808,0.9807,0.9804,0.9802,0.9806,0.9851,0.9852,0.9853,0.9854,0,0.9423,0.9428,0.9463,0.9502,0.9532,0.9562,0.9591,0.9612,0.9623,0.9652,0.9696,0.9722,0.9775,0.9817,0.9857,0.9873,0.9866,0.9866,0.9877,0.9877,0.9873,0.9877,0.9751,0.9862,0.9861,0.9861,0.986,0.986,0.9485,0.9517,0.9547,0.9588,0.9611,0.9639,0.9672,0.9688,0.9725,0.9768,0.977,0.9818,0.9848,0.9901,0.992,0.9959,0.9946,0.9962,0.9966,0.997,0.9974,0.9868,0.9966,0.9966,0.9966,0.9965,0.9965,0,0.9572,0.9592,0.963,0.9672,0.9705,0.9697,0.973,0.9757,0.98,0.9829,0.9863,0.9915,0.9957,0.9978,1.002,1.0047,1.0045,1.0058,1.0056,1.006,0.9983,0.9969,1.0059,1.0059,1.0059,1.0059,1.0059,1.0059,0.9622,0.9677,0.9686,0.9753,0.9772,0.982,0.984,0.9867,0.989,0.9949,0.9984,0.9998,1.0025,1.0069,1.0108,1.0113,1.0129,1.0144,1.0148,1.0075,1.0065,1.0056,1.0043,1.0147,1.0147,1.0222,1.0223,1.0223]},{"header":{"parameterUnit":"m.s-1","parameterCategory":1,"la1":30.2991,"la2":30.254,"lo1":-89.0895,"lo2":-89.0444,"dy":0.0017,"dx":0.0017,"nx":28,"ny":28,"refTime":"2024-08-05T03:00:00:Z","depth":0,"parameterNumber":3,"parameterNumberName":"V-component_of_WINDS"},"data":[0,0,0,0,0,0,0,0,0,0,0,0,0,0,0,0,0,0,0,0,0,0,0,0,0,0,0,0,0,0,0,0,0,0,0,0,0,0,0,0,0,0,0,0,0,0,0,0,0,0,0,0,0,0,0,0,0,0,-2.901,-2.9011,0,-2.9121,-2.9122,-2.9124,-2.9158,-2.9158,-2.9157,-2.9157,-2.9267,-2.927,-2.9273,0,0,0,0,0,0,0,0,0,0,0,0,0,-2.8823,-2.8826,-2.9009,-2.9011,-2.9012,-2.9121,-2.9122,-2.9124,-2.9158,-2.9158,-2.9157,-2.9157,-2.9265,-2.9269,-2.9274,0,0,0,0,0,0,0,0,0,0,0,0,0,-2.8916,-2.8827,-2.9009,-2.9043,-2.9047,-2.9121,-2.9122,-2.9124,-2.9159,-2.9158,-2.9157,-2.9156,-2.9264,-2.9269,-2.9274,-2.9321,0,0,-2.929,-2.9292,0,0,0,0,0,0,0,0,-2.891,-2.8923,-2.9036,-2.904,-2.9045,-2.9125,-2.9097,-2.919,-2.9159,-2.9116,-2.9157,-2.9156,-2.922,-2.9229,-2.9251,-2.9326,-2.9331,-2.929,-2.9293,-2.9296,-2.9297,0,0,0,0,0,0,0,-2.8904,-2.8918,-2.9053,-2.9038,-2.9043,-2.9051,-2.9063,-2.9115,-2.9171,-2.912,-2.9122,-2.9135,-2.9222,-2.9246,-2.9254,-2.9333,-2.929,-2.9295,-2.9298,-2.93,-2.9453,-2.9454,0,0,0,0,0,0,-2.8892,-2.8912,-2.905,-2.9057,-2.8975,-2.9055,-2.9069,-2.91,-2.917,-2.918,-2.9136,-2.9137,-2.9238,-2.9248,-2.9258,-2.9318,-2.9295,-2.93,-2.9303,-2.9452,-2.9453,-2.9454,0,0,0,0,0,0,-2.8888,-2.8904,-2.9045,-2.8985,-2.9004,-2.9059,-2.9094,-2.9103,-2.9127,-2.9183,-2.9192,-2.915,-2.9237,-2.9251,-2.9306,-2.9322,-2.9303,-2.9307,-2.9451,-2.9452,-2.9454,-2.9438,0,0,0,0,0,0,-2.8883,-2.8903,-2.8922,-2.8986,-2.9007,-2.9092,-2.9095,-2.9106,-2.9136,-2.9138,-2.9199,-2.9208,-2.9238,-2.9298,-2.9311,-2.9329,-2.9311,-2.9449,-2.9451,-2.9453,-2.9437,-2.9438,-2.944,0,0,0,0,0,-2.8876,-2.8912,-2.8923,-2.8939,-2.9033,-2.9093,-2.9105,-2.914,-2.9137,-2.9156,-2.9193,-2.9206,-2.9318,-2.9303,-2.9318,-2.9338,-2.9448,-2.9451,-2.9453,-2.9436,-2.9438,-2.944,0,0,0,0,0,0,-2.8847,-2.8921,-2.8934,-2.8992,-2.9036,-2.9099,-2.9124,-2.9141,-2.9186,-2.9185,-2.9226,-2.9239,-2.9291,-2.932,-2.9302,-2.9387,-2.9384,-2.9389,-2.9366,-2.9368,-2.937,-2.9361,-2.9315,0,0,0,0,0,-2.8847,-2.8892,-2.8954,-2.8999,-2.9021,-2.9069,-2.9096,-2.912,-2.9167,-2.9185,-2.9225,-2.9269,-2.9314,-2.9343,-2.9388,-2.9442,-2.9455,-2.9463,-2.9464,-2.9465,-2.9468,-2.9499,-2.9503,-2.9461,-2.9461,-2.9461,0,0,-2.8848,-2.8894,-2.892,-2.8994,-2.9031,-2.9075,-2.9084,-2.913,-2.9163,-2.9192,-2.9246,-2.9277,-2.9329,-2.9384,-2.941,-2.9409,-2.9483,-2.9468,-2.9468,-2.9471,-2.9502,-2.9506,-2.9509,-2.9463,-2.9463,-2.9462,0,0,-2.8872,-2.8912,-2.8954,-2.8992,-2.9049,-2.9081,-2.9091,-2.9152,-2.9174,-2.923,-2.9253,-2.9292,-2.9369,-2.9405,-2.9433,-2.9473,-2.9487,-2.9486,-2.9493,-2.9522,-2.9525,-2.9528,-2.9542,-2.9546,-2.949,-2.949,-2.949,0,-2.8866,-2.8934,-2.8973,-2.9019,-2.905,-2.9081,-2.9123,-2.9157,-2.9225,-2.9246,-2.9245,-2.9343,-2.938,-2.9444,-2.9453,-2.9476,-2.9487,-2.9479,-2.9522,-2.9525,-2.9529,-2.9542,-2.9547,-2.9489,-2.9489,-2.9489,-2.9489,0,-2.8923,-2.8971,-2.8997,-2.9064,-2.9099,-2.9142,-2.9187,-2.9217,-2.9238,-2.927,-2.9326,-2.9372,-2.9427,-2.9444,-2.9463,-2.951,-2.9508,-2.9514,-2.9511,-2.9532,-2.9545,-2.955,-2.9489,-2.9489,-2.9489,-2.9489,0,0,-2.8931,-2.902,-2.9029,-2.906,-2.9125,-2.9162,-2.9206,-2.9262,-2.9287,-2.9333,-2.9371,-2.9436,-2.9443,-2.9475,-2.9499,-2.9525,-2.9553,-2.9528,-2.953,-2.953,-2.9606,-2.9601,-2.9606,-2.9563,-2.9564,-2.9565,-2.9602,0,-2.8963,-2.9045,-2.9082,-2.9147,-2.9191,-2.9221,-2.926,-2.9304,-2.9335,-2.9376,-2.941,-2.9455,-2.946,-2.948,-2.9507,-2.9543,-2.9568,-2.9541,-2.9597,-2.9599,-2.9582,-2.9613,-2.9607,-2.9639,-2.9607,-2.9608,-2.9609,0,-2.9011,-2.9059,-2.9129,-2.919,-2.921,-2.9244,-2.9298,-2.9337,-2.9387,-2.9408,-2.9445,-2.9468,-2.9515,-2.9511,-2.9576,-2.9557,-2.9582,-2.9603,-2.9605,-2.9611,-2.9604,-2.9618,-2.965,-2.9655,-2.9617,-2.9617,-2.9616,0,-2.9008,-2.909,-2.9143,-2.9168,-2.9241,-2.9265,-2.9296,-2.9346,-2.9376,-2.9423,-2.9443,-2.9494,-2.9522,-2.9561,-2.9597,-2.959,-2.9658,-2.9657,-2.9676,-2.9675,-2.9688,-2.9686,-2.9723,-2.9705,-2.9705,-2.9705,-2.9705,0,-2.9039,-2.908,-2.9143,-2.9175,-2.9222,-2.9264,-2.9309,-2.9342,-2.9387,-2.9425,-2.9454,-2.9489,-2.9536,-2.9577,-2.9605,-2.9655,-2.9667,-2.9684,-2.9691,-2.9681,-2.9679,-2.9697,-2.9695,-2.9707,-2.9706,-2.9706,-2.9706,0,-2.9043,-2.9087,-2.9146,-2.9211,-2.9228,-2.926,-2.9315,-2.9347,-2.938,-2.9429,-2.9442,-2.9494,-2.9544,-2.9584,-2.9649,-2.9668,-2.9719,-2.9728,-2.9703,-2.9706,-2.9723,-2.972,-2.9772,-2.9781,-2.9758,-2.9758,-2.9758,0,-2.906,-2.9093,-2.9162,-2.919,-2.9222,-2.9267,-2.93,-2.9342,-2.9374,-2.9435,-2.9459,-2.9511,-2.9555,-2.9633,-2.9676,-2.9725,-2.9735,-2.9749,-2.9742,-2.9731,-2.9734,-2.9731,-2.9734,-2.9749,-2.975,-2.975,-2.975,0,-2.9084,-2.9105,-2.9151,-2.9205,-2.9243,-2.9287,-2.9332,-2.9353,-2.9404,-2.9438,-2.949,-2.9525,-2.9592,-2.9643,-2.9697,-2.9728,-2.9747,-2.9752,-2.9759,-2.9748,-2.9732,-2.9741,-2.9704,-2.975,-2.975,-2.975,-2.975,-2.975,-2.9095,-2.9125,-2.9179,-2.923,-2.9268,-2.931,-2.9343,-2.9381,-2.9426,-2.9485,-2.9507,-2.956,-2.961,-2.9685,-2.9717,-2.9758,-2.976,-2.977,-2.9773,-2.9774,-2.9773,-2.9727,-2.9768,-2.9769,-2.9769,-2.9769,-2.9769,0,-2.912,-2.9156,-2.9203,-2.9265,-2.9305,-2.9321,-2.9372,-2.9403,-2.945,-2.9496,-2.9539,-2.9599,-2.9649,-2.9696,-2.9749,-2.9773,-2.9783,-2.9785,-2.9783,-2.979,-2.9768,-2.9757,-2.9776,-2.9776,-2.9776,-2.9776,-2.9776,-2.9776,-2.9138,-2.9191,-2.9217,-2.9289,-2.9325,-2.9379,-2.9406,-2.9444,-2.9481,-2.9547,-2.959,-2.9621,-2.9667,-2.9723,-2.9769,-2.9782,-2.9799,-2.9799,-2.9814,-2.9793,-2.9791,-2.979,-2.9779,-2.9803,-2.9803,-2.9832,-2.9832,-2.9832]}]]